Location: Bremen
(53.0793°N, 8.8017°E)
Time: 00:36:33
(UTC+01:00)

Vanguard 2 - All Passes

Search period start: 28 November 2021 00:00
Search period end: 08 December 2021 00:00
Orbit: 554 x 2936 km, 32.9° (Epoch: 27 November)

Date Brightness Start Highest point End Pass type
(mag) Time Alt. Az. Time Alt. Az. Time Alt. Az.
28 Nov - 15:29:32 10° S 15:33:41 15° SSE 15:38:52 10° ESE daylight
28 Nov - 17:34:32 10° SW 17:41:13 24° S 17:50:30 10° SE visible
28 Nov - 19:42:19 10° WSW 19:49:47 20° SSW 19:59:22 10° SSE visible
29 Nov - 15:46:15 10° SSW 15:50:46 17° SSE 15:56:37 10° SE daylight
29 Nov - 17:51:59 10° SW 17:58:30 22° S 18:07:26 10° SE visible
29 Nov - 20:00:36 10° SW 20:07:05 17° SSW 20:15:01 10° SSE visible
30 Nov - 16:03:14 10° SSW 16:07:56 18° SSE 16:14:07 10° SE daylight
30 Nov - 18:09:37 10° SW 18:15:49 20° S 18:24:06 10° SE visible
30 Nov - 20:19:44 10° SW 20:24:22 13° SSW 20:29:40 10° S visible
01 Dec - 16:20:27 10° SSW 16:25:10 18° S 16:31:23 10° SE daylight
01 Dec - 18:27:32 10° SW 18:33:09 18° S 18:40:24 10° SSE visible
02 Dec - 14:33:51 10° S 14:35:15 11° SSE 14:36:46 10° SE daylight
02 Dec - 16:37:51 10° SW 16:42:26 17° S 16:48:24 10° SE visible
02 Dec - 18:45:52 10° SW 18:50:29 14° SSW 18:56:05 10° SSE visible
03 Dec - 14:50:12 10° S 14:52:24 12° SSE 14:54:54 10° SE daylight
03 Dec - 16:55:30 10° SW 16:59:45 16° S 17:05:07 10° SSE visible
03 Dec - 19:05:30 10° SSW 19:07:49 11° SSW 19:10:21 10° S visible
04 Dec - 15:07:10 10° S 15:09:35 12° SSE 15:12:24 10° SE daylight
04 Dec - 17:13:30 10° SW 17:17:04 14° S 17:21:24 10° SSE visible
05 Dec - 15:24:31 10° SSW 15:26:50 12° S 15:29:30 10° SSE daylight
05 Dec - 17:32:20 10° SSW 17:34:24 11° S 17:36:43 10° S visible
06 Dec - 15:42:20 10° SSW 15:44:07 11° S 15:46:05 10° SSE daylight
